Date String (YYYY-MM-DD hh:mm:ss) UTC,Instrument flags,Ambient pressure (hPa),Sample flow (lpm),Bypass flow (lpm),Sample temperature (°C),Ambient temperature (°C),ASC tube jacket temperature (°C),LED temperature (°C),Box temperature (°C),Sample RH (%),Span deviation,Mass concentration (μg/m³),Mass concentration (μg/m³),Mass concentration (μg/m³)
DateTimeUTC,F1_M11,P_M11,Q1_M11,Q2_M11,T1_M11,T2_M11,T3_M11,T4_M11,T5_M11,U1_M11,ZSPAN_M11,X0_M11,X2_M11,X1_M11
2022-06-29 10:00:00,,0829.2,4.99,0.00,29.5,27.8,00.0,38.3,31.4,15.2,0000.0,0010.40,0004.12,0003.58
2022-06-29 10:01:00,,0829.2,5.00,0.00,29.5,28.0,00.0,38.3,31.4,15.2,0000.0,0009.90,0004.13,0003.58
2022-06-29 10:02:00,,0829.3,5.01,0.00,29.5,28.1,00.0,38.3,31.4,15.7,0000.0,0009.32,0004.11,0003.58
2022-06-29 10:03:00,,0829.3,5.01,0.00,29.5,28.2,00.0,38.3,31.4,15.8,0000.0,0009.32,0004.12,0003.59
2022-06-29 10:04:00,,0829.2,5.00,0.00,29.5,28.3,00.0,38.3,31.5,15.5,0000.0,0009.06,0004.10,0003.60
2022-06-29 10:05:00,,0829.3,5.01,0.00,29.6,28.4,00.0,38.3,31.5,15.5,0000.0,0008.28,0004.06,0003.59
2022-06-29 10:06:00,,0829.3,4.99,0.00,29.6,28.4,00.0,38.3,31.5,15.4,0000.0,0008.07,0004.06,0003.59
2022-06-29 10:07:00,,0829.2,5.00,0.00,29.6,28.5,00.0,38.4,31.5,15.3,0000.0,0007.63,0004.07,0003.59
2022-06-29 10:08:00,,0829.3,5.01,0.00,29.6,28.6,00.0,38.4,31.6,15.2,0000.0,0007.82,0004.11,0003.59
2022-06-29 10:09:00,,0829.3,5.00,0.00,29.6,28.6,00.0,38.4,31.6,15.2,0000.0,0007.67,0004.14,0003.59
2022-06-29 10:10:00,,0829.2,5.00,0.00,29.7,28.7,00.0,38.4,31.6,15.3,0000.0,0007.98,0004.18,0003.59
2022-06-29 10:11:00,,0829.3,4.99,0.00,29.7,28.7,00.0,38.4,31.7,15.2,0000.0,0009.15,0004.23,0003.61
2022-06-29 10:12:00,,0829.2,5.01,0.00,29.7,28.8,00.0,38.4,31.7,15.1,0000.0,0009.90,0004.25,0003.62
2022-06-29 10:13:00,,0829.2,5.01,0.00,29.7,28.8,00.0,38.5,31.7,15.1,0000.0,0010.03,0004.27,0003.63
2022-06-29 10:14:00,,0829.2,5.00,0.00,29.8,28.9,00.0,38.5,31.7,15.1,0000.0,0010.03,0004.27,0003.63
2022-06-29 10:15:00,,0829.3,5.00,0.00,29.8,28.9,00.0,38.5,31.7,15.1,0000.0,0010.19,0004.29,0003.62
2022-06-29 10:16:00,,0829.3,5.00,0.00,29.8,28.9,00.0,38.5,31.7,15.0,0000.0,0010.46,0004.34,0003.63
2022-06-29 10:17:00,,0829.3,5.01,0.00,29.8,28.4,00.0,38.5,31.6,14.9,0000.0,0010.49,0004.34,0003.63
2022-06-29 10:18:00,,0829.3,5.00,0.00,29.7,27.7,00.0,38.4,31.4,15.2,0000.0,0010.85,0004.39,0003.64
2022-06-29 10:19:00,,0829.3,5.01,0.00,29.7,27.5,00.0,38.4,31.4,15.5,0000.0,0011.13,0004.39,0003.65
2022-06-29 10:20:00,,0829.3,5.00,0.00,29.6,27.5,00.0,38.4,31.3,15.8,0000.0,0011.34,0004.39,0003.66
2022-06-29 10:21:00,,0829.2,4.99,0.00,29.6,27.6,00.0,38.4,31.3,15.5,0000.0,0011.80,0004.38,0003.68
2022-06-29 10:22:00,,0829.2,5.00,0.00,29.6,27.7,00.0,38.4,31.3,15.6,0000.0,0011.20,0004.38,0003.68
2022-06-29 10:23:00,,0829.2,5.01,0.00,29.5,27.9,00.0,38.4,31.3,15.3,0000.0,0010.35,0004.38,0003.68
2022-06-29 10:24:00,,0829.3,5.00,0.00,29.5,28.0,00.0,38.4,31.4,15.3,0000.0,0010.19,0004.35,0003.67
2022-06-29 10:25:00,,0829.3,5.00,0.00,29.5,28.1,00.0,38.4,31.4,15.3,0000.0,0010.30,0004.38,0003.68
2022-06-29 10:26:00,,0829.3,4.99,0.00,29.6,28.2,00.0,38.4,31.4,15.4,0000.0,0010.64,0004.42,0003.69
2022-06-29 10:27:00,,0829.2,5.00,0.00,29.6,28.3,00.0,38.4,31.4,15.5,0000.0,0010.97,0004.44,0003.70
2022-06-29 10:28:00,,0829.2,5.00,0.00,29.6,28.4,00.0,38.4,31.5,15.4,0000.0,0011.16,0004.44,0003.71
2022-06-29 10:29:00,,0829.3,4.99,0.00,29.6,28.5,00.0,38.4,31.5,15.5,0000.0,0011.03,0004.45,0003.72
2022-06-29 10:30:00,,0829.2,5.00,0.00,29.6,28.6,00.0,38.4,31.5,15.6,0000.0,0010.46,0004.41,0003.72
2022-06-29 10:31:00,,0829.2,4.99,0.00,29.6,28.6,00.0,38.4,31.6,15.6,0000.0,0010.67,0004.39,0003.72
2022-06-29 10:32:00,,0829.3,5.01,0.00,29.7,28.7,00.0,38.4,31.6,15.6,0000.0,0010.34,0004.42,0003.74
2022-06-29 10:33:00,,0829.2,5.01,0.00,29.7,28.7,00.0,38.4,31.6,15.7,0000.0,0011.23,0004.44,0003.75
2022-06-29 10:34:00,,0829.3,4.99,0.00,29.7,28.8,00.0,38.5,31.7,15.7,0000.0,0011.94,0004.48,0003.77
2022-06-29 10:35:00,,0829.3,5.00,0.00,29.7,28.8,00.0,38.5,31.7,15.5,0000.0,0012.20,0004.54,0003.79
2022-06-29 10:36:00,,0829.4,5.00,0.00,29.8,28.9,00.0,38.5,31.7,15.5,0000.0,0012.50,0004.55,0003.79
2022-06-29 10:37:00,,0829.3,5.01,0.00,29.8,28.9,00.0,38.5,31.7,15.4,0000.0,0012.05,0004.47,0003.78
2022-06-29 10:38:00,,0829.3,5.00,0.00,29.8,28.9,00.0,38.5,31.8,15.4,0000.0,0011.81,0004.41,0003.78
2022-06-29 10:39:00,,0829.3,4.99,0.00,29.8,28.2,00.0,38.5,31.6,15.5,0000.0,0011.55,0004.37,0003.76
2022-06-29 10:40:00,,0829.2,5.00,0.00,29.7,27.6,00.0,38.4,31.4,15.7,0000.0,0011.32,0004.37,0003.76
2022-06-29 10:41:00,,0829.3,4.99,0.00,29.7,27.5,00.0,38.4,31.4,15.6,0000.0,0011.35,0004.37,0003.77
2022-06-29 10:42:00,,0829.4,5.00,0.00,29.6,27.5,00.0,38.4,31.3,15.7,0000.0,0010.99,0004.37,0003.77
2022-06-29 10:43:00,,0829.5,5.00,0.00,29.6,27.6,00.0,38.4,31.3,15.7,0000.0,0010.90,0004.35,0003.76
2022-06-29 10:44:00,,0829.5,4.99,0.00,29.6,27.8,00.0,38.4,31.3,15.8,0000.0,0010.13,0004.34,0003.75
2022-06-29 10:45:00,,0829.5,5.00,0.00,29.5,27.9,00.0,38.4,31.4,15.9,0000.0,0009.48,0004.27,0003.73
2022-06-29 10:46:00,,0829.5,4.99,0.00,29.5,28.0,00.0,38.4,31.4,16.0,0000.0,0009.28,0004.27,0003.74
2022-06-29 10:47:00,,0829.5,4.99,0.00,29.6,28.1,00.0,38.4,31.4,16.0,0000.0,0009.32,0004.32,0003.77
2022-06-29 10:48:00,,0829.5,5.01,0.00,29.6,28.2,00.0,38.4,31.4,15.9,0000.0,0010.08,0004.39,0003.80
2022-06-29 10:49:00,,0829.5,5.00,0.00,29.6,28.3,00.0,38.4,31.5,15.9,0000.0,0010.01,0004.42,0003.82
2022-06-29 10:50:00,,0829.5,5.01,0.00,29.6,28.4,00.0,38.4,31.5,15.9,0000.0,0010.35,0004.46,0003.85
2022-06-29 10:51:00,,0829.5,4.99,0.00,29.6,28.5,00.0,38.4,31.5,16.0,0000.0,0010.70,0004.44,0003.86
2022-06-29 10:52:00,,0829.6,5.00,0.00,29.6,28.6,00.0,38.4,31.5,16.1,0000.0,0010.73,0004.48,0003.88
2022-06-29 10:53:00,,0829.5,5.00,0.00,29.7,28.6,00.0,38.4,31.6,16.0,0000.0,0010.85,0004.55,0003.90
2022-06-29 10:54:00,,0829.5,5.00,0.00,29.7,28.7,00.0,38.4,31.6,16.0,0000.0,0010.97,0004.57,0003.92
2022-06-29 10:55:00,,0829.5,4.99,0.00,29.7,28.7,00.0,38.4,31.6,16.0,0000.0,0011.78,0004.61,0003.94
2022-06-29 10:56:00,,0829.5,4.99,0.00,29.7,28.7,00.0,38.5,31.6,16.0,0000.0,0012.21,0004.67,0003.98
2022-06-29 10:57:00,,0829.5,5.01,0.00,29.7,28.8,00.0,38.5,31.7,16.2,0000.0,0012.61,0004.70,0004.00
2022-06-29 10:58:00,,0829.4,5.01,0.00,29.8,28.8,00.0,38.5,31.7,16.2,0000.0,0012.58,0004.67,0004.00
2022-06-29 10:59:00,,0829.5,5.00,0.00,29.8,28.8,00.0,38.5,31.7,15.9,0000.0,0012.27,0004.71,0004.01
